Minneapolis Flying Cloud, MN

1:19 AM CDT on September 26, 2017 (GMT -0500)
Flying Cloud

Weather History for KFCM - February, 2014

Change the Weather History Date:

Friday, February 28, 2014

  Actual Average Record
Temperature  
Mean Temperature 2 °F -  
Max Temperature 14 °F 28 °F 46 °F (2017)
Min Temperature -9 °F 15 °F -9 °F (2001)
Degree Days  
Heating Degree Days 62    
Moisture  
Dew Point -2 °F    
Average Humidity 69    
Maximum Humidity 85    
Minimum Humidity 54    
Precipitation  
Precipitation 0.00 in - - ()
Sea Level Pressure  
Sea Level Pressure 29.99 in    
Wind  
Wind Speed 8 mph (SSW)    
Max Wind Speed 15 mph    
Max Gust Speed 23 mph    
Visibility 8 miles    
Events Snow    
Averages and records for this station are not official NWS values.
T = Trace of Precipitation, MM = Missing Value Source: NWS Daily Summary

Daily Weather History Graph

Daily Weather History Graph

Search for Another Location

Airport or City:

Trip Planner

Search our weather history database for the weather conditions in past years. The results will help you decide how hot, cold, wet, or windy it might be!

Date:

Astronomy

Feb. 28, 2014 Rise Set
Actual Time 6:53 AM CST 6:00 PM CST
Civil Twilight 6:23 AM CST 6:29 PM CST
Nautical Twilight 5:49 AM CST 7:03 PM CST
Astronomical Twilight 5:16 AM CST 7:37 PM CST
Moon 6:08 AM CST (2/28) 5:38 PM CST (2/28)
Length of Visible Light 12h 05m
Length of Day
11h 06m
Waning Crescent, 1% of the Moon is Illuminated
Feb 28
Waning Crescent
Mar 1
New
Mar 8
First Quarter
Mar 16
Full
Mar 23
Last Quarter

Hourly Weather History & Observations

Time (CST) Temp. Windchill Dew Point Humidity Pressure Visibility Wind Dir Wind Speed Gust Speed Precip Events Conditions
12:53 AM -6.0 °F -20.1 °F -17.0 °F 59% 30.13 in 10.0 mi SSE 6.9 mph - N/A   Overcast
1:53 AM -6.0 °F -18.6 °F -17.0 °F 59% 30.10 in 10.0 mi ESE 5.8 mph - N/A   Mostly Cloudy
2:53 AM -7.1 °F -21.4 °F -17.0 °F 62% 30.07 in 10.0 mi ESE 6.9 mph - N/A   Clear
3:53 AM -9.0 °F -25.2 °F -18.9 °F 62% 30.05 in 10.0 mi ESE 8.1 mph - N/A   Clear
4:53 AM -8.0 °F -22.5 °F -20.0 °F 56% 30.04 in 10.0 mi ESE 6.9 mph - N/A   Clear
5:53 AM -6.0 °F -23.6 °F -18.9 °F 54% 30.01 in 10.0 mi SE 10.4 mph - N/A   Overcast
6:53 AM -4.0 °F -22.1 °F -16.1 °F 56% 30.00 in 10.0 mi SE 11.5 mph - N/A   Overcast
7:53 AM -2.0 °F -16.6 °F -13.0 °F 60% 29.98 in 10.0 mi East 8.1 mph - N/A   Overcast
8:53 AM 1.0 °F -12.9 °F -9.9 °F 60% 29.98 in 10.0 mi SE 8.1 mph - N/A   Overcast
9:53 AM 5.0 °F -9.1 °F -6.0 °F 61% 29.96 in 10.0 mi SE 9.2 mph - N/A   Overcast
10:53 AM 7.0 °F -7.5 °F -2.9 °F 64% 29.96 in 10.0 mi SSE 10.4 mph - N/A   Overcast
11:13 AM 8.6 °F -7.0 °F -0.4 °F 67% 29.88 in 2.5 mi South 12.7 mph - 0.00 in Snow Light Snow
11:46 AM 8.6 °F -5.5 °F 3.2 °F 79% 29.88 in 0.8 mi South 10.4 mph - 0.00 in Snow Light Snow
11:53 AM 9.0 °F -5.1 °F 3.9 °F 80% 29.96 in 0.5 mi South 10.4 mph - 0.00 in Snow Snow
12:02 PM 8.6 °F -7.0 °F 3.2 °F 79% 29.88 in 0.5 mi South 12.7 mph - 0.00 in Snow Snow
12:32 PM 8.6 °F -5.5 °F 5.0 °F 85% 29.89 in 1.5 mi SSW 10.4 mph - 0.00 in Snow Light Snow
12:38 PM 8.6 °F -5.5 °F 3.2 °F 79% 29.89 in 2.5 mi South 10.4 mph - 0.00 in Snow Light Snow
12:45 PM 8.6 °F -4.7 °F 3.2 °F 79% 29.89 in 5.0 mi South 9.2 mph - 0.00 in Snow Light Snow
12:53 PM 10.0 °F -0.9 °F 3.9 °F 76% 29.96 in 8.0 mi South 6.9 mph - 0.00 in   Overcast
1:02 PM 10.4 °F -0.4 °F 3.2 °F 73% 29.89 in 9.0 mi SSW 6.9 mph - N/A   Overcast
1:14 PM 10.4 °F -3.3 °F 3.2 °F 73% 29.89 in 8.0 mi SSW 10.4 mph - N/A   Overcast
1:53 PM 12.0 °F 0.5 °F 6.1 °F 77% 29.95 in 9.0 mi South 8.1 mph - N/A   Overcast
2:53 PM 12.9 °F 0.7 °F 6.1 °F 74% 29.96 in 9.0 mi SW 9.2 mph - N/A   Overcast
3:29 PM 14.0 °F 3.9 °F 6.8 °F 73% 29.91 in 10.0 mi West 6.9 mph - N/A   Overcast
3:53 PM 14.0 °F 3.9 °F 6.1 °F 71% 29.99 in 10.0 mi WSW 6.9 mph - N/A   Overcast
4:53 PM 14.0 °F 3.9 °F 6.1 °F 71% 30.00 in 10.0 mi WNW 6.9 mph - N/A   Overcast
5:05 PM 14.0 °F 2.9 °F 6.8 °F 73% 29.94 in 10.0 mi West 8.1 mph - N/A   Overcast
5:37 PM 14.0 °F 5.1 °F 6.8 °F 73% 29.95 in 10.0 mi WNW 5.8 mph - N/A   Overcast
5:53 PM 14.0 °F 3.9 °F 6.1 °F 71% 30.03 in 10.0 mi WNW 6.9 mph - N/A   Mostly Cloudy
6:53 PM 14.0 °F 6.5 °F 6.1 °F 71% 30.06 in 10.0 mi NW 4.6 mph - N/A   Clear
7:53 PM 12.0 °F 1.5 °F 5.0 °F 73% 30.08 in 10.0 mi NW 6.9 mph - N/A   Clear
8:53 PM 12.0 °F 0.5 °F 3.9 °F 70% 30.10 in 10.0 mi NW 8.1 mph - N/A   Partly Cloudy
9:53 PM 12.0 °F 0.5 °F 3.9 °F 70% 30.13 in 10.0 mi NNW 8.1 mph - N/A   Overcast
10:53 PM 10.0 °F -6.5 °F -0.0 °F 64% 30.19 in 10.0 mi NW 15.0 mph 23.0 mph N/A   Scattered Clouds
11:53 PM 7.0 °F -9.1 °F -2.9 °F 64% 30.22 in 10.0 mi NNW 12.7 mph 20.7 mph N/A   Mostly Cloudy